Regional Weather Roundup
Issued by NWS

Home | Current Version | Previous Version | Graphics & Text | Print | Product List | Glossary Off
Versions: 1 2 3 4 5 6 7 8 9 10 11 12 13 14 15 16 17 18 19 20 21 22 23 24 25 26 27 28 29 30 31 32 33 34 35 36 37 38 39 40 41 42 43 44 45 46 47 48 49 50

000
ASUS45 KBOU 290407
RWRCO

WEATHER ROUNDUP FOR COLORADO
NATIONAL WEATHER SERVICE DENVER/BOULDER CO
900 PM MST FRI NOV 28 2014

NOTE: "FAIR" INDICATES FEW OR NO CLOUDS BELOW 12000 FEET WITH NO
SIGNIFICANT WEATHER AND/OR OBSTRUCTIONS TO VISIBILITY.

COZ001>005-013-030-031-290500-
...NORTHWEST COLORADO...

CITY           SKY/WX    TMP DP  RH WIND       PRES   REMARKS
CRAIG          PTCLDY    30  21  69 CALM      29.93F
HAYDEN         PTCLDY    34  18  51 E8        29.94F WCI  27
MEEKER         PTCLDY    45  19  35 SW13      29.97F
MOUNT WERNER   NOT AVBL
STEAMBOAT SPGS PTCLDY    23  19  84 CALM      29.96F
WALDEN         CLEAR     36  12  38 E8        29.96F
$$

COZ006>008-011-290500-
...WEST CENTRAL VALLEYS...

CITY           SKY/WX    TMP DP  RH WIND       PRES   REMARKS
GRAND JUNCTION PTCLDY    32  23  69 E6        29.98F WCI  26
MONTROSE       PTCLDY    30  21  69 SE9       30.03F WCI  22
EAGLE          CLEAR     30  25  80 E5        30.04R WCI  25
RIFLE          CLEAR     32  25  75 CALM      30.01S
DELTA          PTCLDY    36  22  56 NE7       30.01F
NUCLA          PTCLDY    36  16  44 E6        30.06S
$$

COZ017>023-064>068-290500-
...SOUTHWEST COLORADO...

CITY           SKY/WX    TMP DP  RH WIND       PRES   REMARKS
DURANGO        PTCLDY    31  16  54 N7        30.11S WCI  24
CORTEZ         CLEAR     25  15  66 E7        30.07S WCI  17
PAGOSA SPRINGS PTCLDY    31  12  45 CALM      30.15F
TELLURIDE      PTCLDY    37   8  29 E5        30.18F
WOLF CREEK PAS CLEAR     28   9  43 MISG      30.25R
$$

COZ009-010-012-014-032>034-037-058>063-290500-
...CENTRAL COLORADO...

CITY           SKY/WX    TMP DP  RH WIND       PRES   REMARKS
ASPEN          CLEAR     29  15  56 SW8       30.04F WCI  21
BUENA VISTA    CLEAR     43   6  22 W13G21    30.02S
COPPER MTN     CLEAR     34  -2  21 SW14G24   30.17S WCI  24
BERTHOUD PASS  NOT AVBL
COTTONWOOD PAS CLEAR     45  -6  12 W22G40    30.07F
GUNNISON       CLEAR     19  12  73 N3        30.15R
KREMMLING      PTCLDY    39  14  35 W12       29.99F
LEADVILLE      CLEAR     27   5  39 NE7       30.09F WCI  19
MONARCH PASS   CLEAR     28   5  37 W32       30.29S WCI  12
SALIDA         CLEAR     47   6  18 SW10      30.09S
SUNLIGHT       CLEAR     30  18  59 CALM      30.13S
WILKERSON PASS PTCLDY    32   0  25 SW14G23   30.10F WCI  22
$$

COZ069>075-290500-
...SAN LUIS VALLEY/SANGRE DE CRISTO MOUNTAINS...

CITY           SKY/WX    TMP DP  RH WIND       PRES   REMARKS
ALAMOSA        PTCLDY    33   8  35 SW8       30.08S WCI  26
LA VETA PASS   PTCLDY    37   5  25 S16G33    30.08S
SAGUACHE       CLEAR     30  14  51 N7        30.09S WCI  23
$$

COZ035-036-038>040-290500-
...NORTHERN COLORADO FRONT RANGE...

CITY           SKY/WX    TMP DP  RH WIND       PRES   REMARKS
DENVER INTL AP CLOUDY    57  10  15 NW5       29.81R
DMNS CITY PARK   N/A     60   6  11 W7G16     29.80S
AURORA         MOCLDY    47  15  27 S8        29.83S
FRONT RANGE AP CLOUDY    57  10  15 W9        29.82
ERIE MUNI ARPT MOCLDY    50   9  19 S5        29.79S
BOULDER MUN AP MOCLDY    63  10  13 NW7G17    29.78S
CENTENNIAL     MOCLDY    49  12  22 VRB3      29.83R
BROOMFIELD     MOCLDY    57   9  14 W16       29.82S
FORT COLLINS   CLOUDY    61  14  16 W16G32    29.79F
LONGMONT       CLOUDY    64   9  11 W16G25    29.79S
$$

COZ041-046-047-076>085-087-088-290500-
...PIKES PEAK/PALMER DIVIDE AND SOUTHERN FOOTHILLS...

CITY           SKY/WX    TMP DP  RH WIND       PRES   REMARKS
COLO. SPRINGS  MOCLDY    55   3  12 NE5       29.87S
A. F. ACADEMY  PTCLDY    50   3  14 NE8       29.89S
ELLICOTT       NOT AVBL
FALCON         NOT AVBL
FORT CARSON    PTCLDY    50   7  17 NW3       29.84R
LIMON          CLOUDY    38  15  39 W8        29.81F
MONUMENT HILL  MOCLDY    45   9  23 W15       29.89S
TRINIDAD       CLOUDY    47  19  33 NW6       29.89F
$$

COZ042>045-048>051-090-091-290500-
...NORTHEAST COLORADO...

CITY           SKY/WX    TMP DP  RH WIND       PRES   REMARKS
GREELEY ARPT   CLOUDY    46  19  34 CALM      29.78F
AKRON          CLOUDY    46  17  31 NW3       29.76F
BURLINGTON     CLOUDY    46  16  30 SW10      29.74F
WRAY           CLOUDY    42  21  42 NW6       29.72F
STERLING       CLOUDY    36  30  80 CALM      29.75S
HOLYOKE        CLOUDY    37  27  65 W8        29.73F
FORT MORGAN    CLOUDY    51  17  26 W7        29.77S
$$

COZ086-089-092>099-290500-
...SOUTHEAST COLORADO...

CITY           SKY/WX    TMP DP  RH WIND       PRES   REMARKS
PUEBLO         MOCLDY    42  17  36 CALM      29.82F
LA JUNTA       CLOUDY    55  16  21 W16       29.79S
LAMAR          CLOUDY    40  20  44 W9        29.76S
SPRINGFIELD      N/A     54  11  18 W14       29.79F
$$


USA.gov is the U.S. government's official web portal to all federal, state and local government web resources and services.